Time,TemperatureF,DewpointF,PressureIn,WindDirection,WindDirectionDegrees,WindSpeedMPH,WindSpeedGustMPH,Humidity,HourlyPrecipIn,Conditions,Clouds,dailyrainin,SoftwareType,DateUTC
2013-02-09 00:00:00,37.4,22.3,30.12,South,185,0.0,0.0,54,0.00,,,0.00,WeatherDisplay:10.37,2013-02-09 00:00:00,
2013-02-09 00:10:00,37.2,22.1,30.12,South,186,0.0,0.0,54,0.00,CLR,CLR,0.00,WeatherDisplay:10.37,2013-02-09 00:10:00,
2013-02-09 00:15:00,37.2,22.1,30.12,SSE,160,0.0,0.0,54,0.00,CLR,CLR,0.00,WeatherDisplay:10.37,2013-02-09 00:15:00,
2013-02-09 00:20:00,37.2,22.1,30.12,SE,135,0.0,0.0,54,0.00,CLR,CLR,0.00,WeatherDisplay:10.37,2013-02-09 00:20:00,
2013-02-09 00:25:00,37.0,22.4,30.12,SE,129,0.0,0.0,55,0.00,CLR,CLR,0.00,WeatherDisplay:10.37,2013-02-09 00:25:00,
2013-02-09 00:30:00,37.0,22.4,30.12,SE,129,0.0,3.0,55,0.00,CLR,CLR,0.00,WeatherDisplay:10.37,2013-02-09 00:30:00,
2013-02-09 00:40:00,37.0,22.4,30.12,SE,130,0.0,3.0,55,0.00,CLR,CLR,0.00,WeatherDisplay:10.37,2013-02-09 00:40:00,
2013-02-09 00:45:00,37.0,22.4,30.12,SE,125,0.0,0.0,55,0.00,CLR,CLR,0.00,WeatherDisplay:10.37,2013-02-09 00:45:00,
2013-02-09 00:50:00,36.9,22.2,30.12,ESE,109,0.0,3.0,55,0.00,CLR,CLR,0.00,WeatherDisplay:10.37,2013-02-09 00:50:00,
2013-02-09 00:55:00,36.9,22.2,30.12,ESE,110,0.0,4.0,55,0.00,CLR,CLR,0.00,WeatherDisplay:10.37,2013-02-09 00:55:00,
2013-02-09 01:00:00,36.9,22.6,30.12,ESE,114,0.0,0.0,56,0.00,CLR,CLR,0.00,WeatherDisplay:10.37,2013-02-09 01:00:00,
2013-02-09 01:10:00,36.9,22.6,30.09,ESE,119,0.0,3.0,56,0.00,CLR,CLR,0.00,WeatherDisplay:10.37,2013-02-09 01:10:00,
2013-02-09 01:15:00,36.7,22.4,30.09,SE,127,0.0,3.0,56,0.00,CLR,CLR,0.00,WeatherDisplay:10.37,2013-02-09 01:15:00,
2013-02-09 01:25:00,36.7,22.4,30.12,SE,130,0.0,0.0,56,0.00,CLR,CLR,0.00,WeatherDisplay:10.37,2013-02-09 01:25:00,
2013-02-09 01:30:00,36.7,22.4,30.12,SE,130,0.0,0.0,56,0.00,CLR,CLR,0.00,WeatherDisplay:10.37,2013-02-09 01:30:00,
2013-02-09 01:40:00,36.7,22.9,30.09,SE,131,0.0,0.0,57,0.00,CLR,CLR,0.00,WeatherDisplay:10.37,2013-02-09 01:40:00,
2013-02-09 01:50:00,36.7,22.9,30.09,SE,131,0.0,0.0,57,0.00,CLR,CLR,0.00,WeatherDisplay:10.37,2013-02-09 01:50:00,
2013-02-09 02:00:00,36.5,22.7,30.09,SE,134,0.0,4.0,57,0.00,CLR,CLR,0.00,WeatherDisplay:10.37,2013-02-09 02:00:00,
2013-02-09 02:05:00,36.3,22.5,30.09,SE,141,0.0,3.0,57,0.00,CLR,CLR,0.00,WeatherDisplay:10.37,2013-02-09 02:05:00,
2013-02-09 02:10:00,36.3,22.9,30.09,SE,143,0.0,0.0,58,0.00,CLR,CLR,0.00,WeatherDisplay:10.37,2013-02-09 02:10:00,
2013-02-09 02:15:00,36.3,22.9,30.09,SE,144,0.0,0.0,58,0.00,CLR,CLR,0.00,WeatherDisplay:10.37,2013-02-09 02:15:00,
2013-02-09 02:20:00,36.1,22.8,30.09,SE,144,0.0,0.0,58,0.00,CLR,CLR,0.00,WeatherDisplay:10.37,2013-02-09 02:20:00,
2013-02-09 02:30:00,36.2,22.8,30.09,SE,143,0.0,0.0,58,0.00,CLR,CLR,0.00,WeatherDisplay:10.37,2013-02-09 02:30:00,
2013-02-09 02:40:00,36.3,23.3,30.09,ESE,106,0.0,0.0,59,0.00,CLR,CLR,0.00,WeatherDisplay:10.37,2013-02-09 02:40:00,
2013-02-09 02:45:00,36.3,23.3,30.09,ESE,104,0.0,0.0,59,0.00,CLR,CLR,0.00,WeatherDisplay:10.37,2013-02-09 02:45:00,
2013-02-09 02:50:00,36.3,23.3,30.09,ESE,108,0.0,4.0,59,0.00,CLR,CLR,0.00,WeatherDisplay:10.37,2013-02-09 02:50:00,
2013-02-09 02:55:00,36.3,23.8,30.09,ESE,123,0.0,0.0,60,0.00,CLR,CLR,0.00,WeatherDisplay:10.37,2013-02-09 02:55:00,
2013-02-09 03:00:00,36.3,23.8,30.09,SE,131,0.0,0.0,60,0.00,CLR,CLR,0.00,WeatherDisplay:10.37,2013-02-09 03:00:00,
2013-02-09 03:10:00,36.3,23.8,30.09,SE,130,0.0,0.0,60,0.00,CLR,CLR,0.00,WeatherDisplay:10.37,2013-02-09 03:10:00,
2013-02-09 03:15:00,36.3,23.8,30.09,ESE,123,0.0,0.0,60,0.00,CLR,CLR,0.00,WeatherDisplay:10.37,2013-02-09 03:15:00,
2013-02-09 03:25:00,36.3,24.1,30.09,ESE,119,0.0,0.0,61,0.00,CLR,CLR,0.00,WeatherDisplay:10.37,2013-02-09 03:25:00,
2013-02-09 03:30:00,36.3,24.1,30.09,ESE,119,0.0,4.0,61,0.00,CLR,CLR,0.00,WeatherDisplay:10.37,2013-02-09 03:30:00,
2013-02-09 03:35:00,36.3,24.1,30.09,SE,144,0.0,0.0,61,0.00,CLR,CLR,0.00,WeatherDisplay:10.37,2013-02-09 03:35:00,
2013-02-09 03:40:00,36.3,24.1,30.09,SSE,165,0.0,0.0,61,0.00,CLR,CLR,0.00,WeatherDisplay:10.37,2013-02-09 03:40:00,
2013-02-09 03:50:00,36.3,24.5,30.09,SSE,149,0.0,3.0,62,0.00,CLR,CLR,0.00,WeatherDisplay:10.37,2013-02-09 03:50:00,
2013-02-09 03:55:00,36.3,24.5,30.09,SE,136,0.0,0.0,62,0.00,CLR,CLR,0.00,WeatherDisplay:10.37,2013-02-09 03:55:00,
2013-02-09 04:00:00,36.3,24.5,30.09,SE,138,0.0,0.0,62,0.00,CLR,CLR,0.00,WeatherDisplay:10.37,2013-02-09 04:00:00,
2013-02-09 04:05:00,36.3,24.5,30.06,SE,138,0.0,0.0,62,0.00,CLR,CLR,0.00,WeatherDisplay:10.37,2013-02-09 04:05:00,
2013-02-09 04:10:00,36.3,24.5,30.06,SE,138,0.0,0.0,62,0.00,CLR,CLR,0.00,WeatherDisplay:10.37,2013-02-09 04:10:00,
2013-02-09 04:15:00,36.3,24.5,30.06,SE,135,0.0,0.0,62,0.00,CLR,CLR,0.00,WeatherDisplay:10.37,2013-02-09 04:15:00,
2013-02-09 04:20:00,36.3,24.9,30.09,ESE,115,0.0,0.0,63,0.00,CLR,CLR,0.00,WeatherDisplay:10.37,2013-02-09 04:20:00,
2013-02-09 04:25:00,36.3,24.9,30.09,East,101,0.0,0.0,63,0.00,CLR,CLR,0.00,WeatherDisplay:10.37,2013-02-09 04:25:00,
2013-02-09 04:30:00,36.3,24.9,30.09,ESE,103,0.0,0.0,63,0.00,CLR,CLR,0.00,WeatherDisplay:10.37,2013-02-09 04:30:00,
2013-02-09 04:40:00,36.3,25.3,30.06,ESE,111,2.0,4.0,64,0.00,CLR,CLR,0.00,WeatherDisplay:10.37,2013-02-09 04:40:00,
2013-02-09 04:45:00,36.3,25.3,30.06,ESE,115,0.0,0.0,64,0.00,CLR,CLR,0.00,WeatherDisplay:10.37,2013-02-09 04:45:00,
2013-02-09 04:50:00,36.3,25.3,30.06,ESE,114,1.0,3.0,64,0.00,CLR,CLR,0.00,WeatherDisplay:10.37,2013-02-09 04:50:00,
2013-02-09 05:00:00,36.3,25.3,30.06,ESE,103,0.0,0.0,64,0.00,CLR,CLR,0.00,WeatherDisplay:10.37,2013-02-09 05:00:00,
2013-02-09 05:05:00,36.3,25.7,30.06,ESE,103,0.0,0.0,65,0.00,CLR,CLR,0.00,WeatherDisplay:10.37,2013-02-09 05:05:00,
2013-02-09 05:10:00,36.3,25.7,30.06,ESE,104,0.0,0.0,65,0.00,CLR,CLR,0.00,WeatherDisplay:10.37,2013-02-09 05:10:00,
2013-02-09 05:15:00,36.3,25.7,30.06,ESE,103,0.0,0.0,65,0.00,CLR,CLR,0.00,WeatherDisplay:10.37,2013-02-09 05:15:00,
2013-02-09 05:20:00,36.3,25.7,30.06,East,98,2.0,4.0,65,0.00,CLR,CLR,0.00,WeatherDisplay:10.37,2013-02-09 05:20:00,
2013-02-09 05:25:00,36.3,25.7,30.06,ESE,102,0.0,4.0,65,0.00,CLR,CLR,0.00,WeatherDisplay:10.37,2013-02-09 05:25:00,
2013-02-09 05:30:00,36.3,26.0,30.06,ESE,107,2.0,4.0,66,0.00,CLR,CLR,0.00,WeatherDisplay:10.37,2013-02-09 05:30:00,
2013-02-09 05:40:00,36.3,26.0,30.06,East,101,2.0,4.0,66,0.00,CLR,CLR,0.00,WeatherDisplay:10.37,2013-02-09 05:40:00,
2013-02-09 05:45:00,36.5,26.2,30.06,ESE,102,3.0,4.0,66,0.00,CLR,CLR,0.00,WeatherDisplay:10.37,2013-02-09 05:45:00,
2013-02-09 05:50:00,36.5,26.6,30.06,ESE,107,1.0,4.0,67,0.00,CLR,CLR,0.00,WeatherDisplay:10.37,2013-02-09 05:50:00,
2013-02-09 05:55:00,36.5,26.6,30.06,ESE,112,2.0,4.0,67,0.00,CLR,CLR,0.00,WeatherDisplay:10.37,2013-02-09 05:55:00,
2013-02-09 06:00:00,36.5,26.6,30.06,ESE,113,1.0,3.0,67,0.00,CLR,CLR,0.00,WeatherDisplay:10.37,2013-02-09 06:00:00,
2013-02-09 06:05:00,36.5,26.6,30.06,ESE,111,0.0,3.0,67,0.00,CLR,CLR,0.00,WeatherDisplay:10.37,2013-02-09 06:05:00,
2013-02-09 06:10:00,36.5,26.6,30.06,ESE,114,0.0,0.0,67,0.00,CLR,CLR,0.00,WeatherDisplay:10.37,2013-02-09 06:10:00,
2013-02-09 06:15:00,36.5,26.6,30.06,ESE,115,0.0,0.0,67,0.00,CLR,CLR,0.00,WeatherDisplay:10.37,2013-02-09 06:15:00,
2013-02-09 06:20:00,36.5,26.6,30.06,ESE,115,0.0,0.0,67,0.00,CLR,CLR,0.00,WeatherDisplay:10.37,2013-02-09 06:20:00,
2013-02-09 06:25:00,36.5,26.9,30.06,ESE,115,0.0,0.0,68,0.00,CLR,CLR,0.00,WeatherDisplay:10.37,2013-02-09 06:25:00,
2013-02-09 06:30:00,36.5,26.9,30.06,ESE,115,0.0,0.0,68,0.00,CLR,CLR,0.00,WeatherDisplay:10.37,2013-02-09 06:30:00,
2013-02-09 06:35:00,36.5,26.9,30.06,ESE,115,0.0,0.0,68,0.00,CLR,CLR,0.00,WeatherDisplay:10.37,2013-02-09 06:35:00,
2013-02-09 06:40:00,36.5,26.9,30.06,ESE,115,0.0,0.0,68,0.00,CLR,CLR,0.00,WeatherDisplay:10.37,2013-02-09 06:40:00,
2013-02-09 06:45:00,36.5,26.9,30.06,ESE,115,0.0,0.0,68,0.00,CLR,CLR,0.00,WeatherDisplay:10.37,2013-02-09 06:45:00,
2013-02-09 06:50:00,36.5,26.9,30.06,ESE,115,0.0,0.0,68,0.00,CLR,CLR,0.00,WeatherDisplay:10.37,2013-02-09 06:50:00,
2013-02-09 06:55:00,36.5,26.9,30.06,ESE,107,2.0,3.0,68,0.00,CLR,CLR,0.00,WeatherDisplay:10.37,2013-02-09 06:55:00,
2013-02-09 07:00:00,36.7,27.1,30.06,East,97,3.0,6.0,68,0.00,CLR,CLR,0.00,WeatherDisplay:10.37,2013-02-09 07:00:00,
2013-02-09 07:05:00,36.7,27.5,30.06,ESE,106,1.0,6.0,69,0.04,RA,RA,0.04,WeatherDisplay:10.37,2013-02-09 07:05:00,
2013-02-09 07:10:00,36.7,27.5,30.06,ESE,104,3.0,6.0,69,0.00,RA,RA,0.04,WeatherDisplay:10.37,2013-02-09 07:10:00,
2013-02-09 07:15:00,36.7,27.5,30.06,East,99,2.0,5.0,69,0.00,,,0.04,WeatherDisplay:10.37,2013-02-09 07:15:00,
2013-02-09 07:20:00,36.7,27.5,30.06,East,101,3.0,5.0,69,0.00,,,0.04,WeatherDisplay:10.37,2013-02-09 07:20:00,
2013-02-09 07:25:00,36.7,27.5,30.06,ESE,103,3.0,4.0,69,0.00,,,0.04,WeatherDisplay:10.37,2013-02-09 07:25:00,
2013-02-09 07:30:00,36.9,27.6,30.06,East,99,0.0,4.0,69,0.00,,,0.04,WeatherDisplay:10.37,2013-02-09 07:30:00,
2013-02-09 07:40:00,36.9,27.6,30.06,East,101,0.0,4.0,69,0.00,,,0.04,WeatherDisplay:10.37,2013-02-09 07:40:00,
2013-02-09 07:45:00,36.9,28.0,30.06,East,93,0.0,0.0,70,0.00,,,0.04,WeatherDisplay:10.37,2013-02-09 07:45:00,
2013-02-09 07:50:00,36.9,28.0,30.06,East,100,0.0,0.0,70,0.00,,,0.04,WeatherDisplay:10.37,2013-02-09 07:50:00,
2013-02-09 07:55:00,36.9,28.0,30.06,ESE,113,0.0,0.0,70,0.00,,,0.04,WeatherDisplay:10.37,2013-02-09 07:55:00,
2013-02-09 08:00:00,36.9,28.0,30.06,ESE,113,0.0,0.0,70,0.00,,,0.04,WeatherDisplay:10.37,2013-02-09 08:00:00,
2013-02-09 08:10:00,36.9,28.0,30.06,ESE,113,0.0,0.0,70,0.00,CLR,CLR,0.04,WeatherDisplay:10.37,2013-02-09 08:10:00,
2013-02-09 08:15:00,37.0,28.2,30.06,ESE,113,0.0,0.0,70,0.00,CLR,CLR,0.04,WeatherDisplay:10.37,2013-02-09 08:15:00,
2013-02-09 08:20:00,37.0,28.2,30.06,ESE,113,0.0,0.0,70,0.00,CLR,CLR,0.04,WeatherDisplay:10.37,2013-02-09 08:20:00,
2013-02-09 08:25:00,37.0,28.2,30.06,ESE,113,0.0,0.0,70,0.00,CLR,CLR,0.04,WeatherDisplay:10.37,2013-02-09 08:25:00,
2013-02-09 08:30:00,37.0,28.2,30.06,ESE,113,0.0,0.0,70,0.00,CLR,CLR,0.04,WeatherDisplay:10.37,2013-02-09 08:30:00,
2013-02-09 08:40:00,37.2,28.3,30.06,East,97,2.0,4.0,70,0.00,CLR,CLR,0.04,WeatherDisplay:10.37,2013-02-09 08:40:00,
2013-02-09 08:45:00,37.4,28.5,30.06,East,94,1.0,4.0,70,0.00,CLR,CLR,0.04,WeatherDisplay:10.37,2013-02-09 08:45:00,
2013-02-09 08:50:00,37.4,28.5,30.06,East,96,1.0,4.0,70,0.00,CLR,CLR,0.04,WeatherDisplay:10.37,2013-02-09 08:50:00,
2013-02-09 08:55:00,37.4,28.5,30.06,East,89,0.0,4.0,70,0.00,CLR,CLR,0.04,WeatherDisplay:10.37,2013-02-09 08:55:00,
2013-02-09 09:00:00,37.4,28.5,30.06,East,82,0.0,0.0,70,0.00,CLR,CLR,0.04,WeatherDisplay:10.37,2013-02-09 09:00:00,
2013-02-09 09:05:00,37.4,28.5,30.06,East,89,2.0,3.0,70,0.00,CLR,CLR,0.04,WeatherDisplay:10.37,2013-02-09 09:05:00,
2013-02-09 09:10:00,37.4,28.5,30.06,ESE,102,2.0,4.0,70,0.00,CLR,CLR,0.04,WeatherDisplay:10.37,2013-02-09 09:10:00,
2013-02-09 09:15:00,37.4,28.5,30.06,East,97,2.0,4.0,70,0.00,CLR,CLR,0.04,WeatherDisplay:10.37,2013-02-09 09:15:00,
2013-02-09 09:20:00,37.6,29.0,30.06,East,82,3.0,4.0,71,0.00,CLR,CLR,0.04,WeatherDisplay:10.37,2013-02-09 09:20:00,
2013-02-09 09:30:00,37.6,29.0,30.06,East,86,3.0,6.0,71,0.00,CLR,CLR,0.04,WeatherDisplay:10.37,2013-02-09 09:30:00,
2013-02-09 09:40:00,37.6,29.0,30.03,East,101,3.0,4.0,71,0.00,CLR,CLR,0.04,WeatherDisplay:10.37,2013-02-09 09:40:00,
2013-02-09 09:45:00,37.6,29.0,30.03,East,100,3.0,5.0,71,0.00,CLR,CLR,0.04,WeatherDisplay:10.37,2013-02-09 09:45:00,
2013-02-09 09:50:00,37.8,29.2,30.03,East,95,3.0,6.0,71,0.00,CLR,CLR,0.04,WeatherDisplay:10.37,2013-02-09 09:50:00,
2013-02-09 09:55:00,37.8,29.2,30.03,East,95,3.0,6.0,71,0.00,CLR,CLR,0.04,WeatherDisplay:10.37,2013-02-09 09:55:00,
2013-02-09 10:00:00,37.8,29.2,30.03,East,99,3.0,6.0,71,0.00,CLR,CLR,0.04,WeatherDisplay:10.37,2013-02-09 10:00:00,
2013-02-09 10:05:00,37.8,29.5,30.03,East,95,3.0,5.0,72,0.00,CLR,CLR,0.04,WeatherDisplay:10.37,2013-02-09 10:05:00,
2013-02-09 10:10:00,37.9,29.7,30.03,East,93,3.0,6.0,72,0.00,CLR,CLR,0.04,WeatherDisplay:10.37,2013-02-09 10:10:00,
2013-02-09 10:15:00,37.9,29.7,30.03,East,96,3.0,6.0,72,0.00,CLR,CLR,0.04,WeatherDisplay:10.37,2013-02-09 10:15:00,
2013-02-09 10:20:00,38.1,29.9,30.03,East,100,3.0,4.0,72,0.00,CLR,CLR,0.04,WeatherDisplay:10.37,2013-02-09 10:20:00,
2013-02-09 10:25:00,38.3,30.1,30.03,East,101,2.0,4.0,72,0.00,CLR,CLR,0.04,WeatherDisplay:10.37,2013-02-09 10:25:00,
2013-02-09 10:30:00,38.3,30.1,30.03,East,85,3.0,6.0,72,0.00,CLR,CLR,0.04,WeatherDisplay:10.37,2013-02-09 10:30:00,
2013-02-09 10:40:00,38.3,30.1,30.03,ESE,107,3.0,5.0,72,0.00,CLR,CLR,0.04,WeatherDisplay:10.37,2013-02-09 10:40:00,
2013-02-09 10:45:00,38.5,30.6,30.03,ESE,109,1.0,6.0,73,0.00,CLR,CLR,0.04,WeatherDisplay:10.37,2013-02-09 10:45:00,
2013-02-09 10:50:00,38.5,30.6,30.03,ESE,113,3.0,5.0,73,0.00,CLR,CLR,0.04,WeatherDisplay:10.37,2013-02-09 10:50:00,
2013-02-09 10:55:00,38.5,30.6,30.03,ESE,102,1.0,6.0,73,0.00,CLR,CLR,0.04,WeatherDisplay:10.37,2013-02-09 10:55:00,
2013-02-09 11:00:00,38.6,30.7,30.03,ESE,104,0.0,5.0,73,0.00,CLR,CLR,0.04,WeatherDisplay:10.37,2013-02-09 11:00:00,
2013-02-09 11:05:00,38.7,30.7,30.03,ESE,109,2.0,3.0,73,0.00,CLR,CLR,0.04,WeatherDisplay:10.37,2013-02-09 11:05:00,
2013-02-09 11:10:00,38.7,30.7,30.03,East,90,3.0,4.0,73,0.00,CLR,CLR,0.04,WeatherDisplay:10.37,2013-02-09 11:10:00,
2013-02-09 11:15:00,38.7,30.7,30.03,East,89,2.0,4.0,73,0.00,CLR,CLR,0.04,WeatherDisplay:10.37,2013-02-09 11:15:00,
2013-02-09 11:20:00,38.8,30.9,30.03,ESE,103,1.0,4.0,73,0.00,CLR,CLR,0.04,WeatherDisplay:10.37,2013-02-09 11:20:00,
2013-02-09 11:30:00,38.8,30.9,30.03,East,92,3.0,5.0,73,0.00,CLR,CLR,0.04,WeatherDisplay:10.37,2013-02-09 11:30:00,
2013-02-09 11:40:00,38.8,30.9,30.03,East,100,0.0,4.0,73,0.00,CLR,CLR,0.04,WeatherDisplay:10.37,2013-02-09 11:40:00,
2013-02-09 11:45:00,39.0,31.1,30.03,East,96,3.0,6.0,73,0.00,CLR,CLR,0.04,WeatherDisplay:10.37,2013-02-09 11:45:00,
2013-02-09 11:50:00,39.0,31.0,30.03,ESE,105,3.0,4.0,73,0.00,CLR,CLR,0.04,WeatherDisplay:10.37,2013-02-09 11:50:00,
2013-02-09 12:00:00,39.2,31.3,30.03,East,100,3.0,6.0,73,0.00,CLR,CLR,0.04,WeatherDisplay:10.37,2013-02-09 12:00:00,
2013-02-09 12:10:00,39.2,31.3,30.03,East,90,3.0,6.0,73,0.00,CLR,CLR,0.04,WeatherDisplay:10.37,2013-02-09 12:10:00,
2013-02-09 12:20:00,39.2,31.3,30.03,ENE,71,1.0,5.0,73,0.00,CLR,CLR,0.04,WeatherDisplay:10.37,2013-02-09 12:20:00,
2013-02-09 12:25:00,39.2,31.6,30.03,East,93,1.0,5.0,74,0.00,CLR,CLR,0.04,WeatherDisplay:10.37,2013-02-09 12:25:00,
2013-02-09 12:30:00,39.4,31.8,30.03,East,81,3.0,5.0,74,0.00,CLR,CLR,0.04,WeatherDisplay:10.37,2013-02-09 12:30:00,
2013-02-09 12:40:00,39.4,31.8,30.03,East,92,1.0,4.0,74,0.00,CLR,CLR,0.04,WeatherDisplay:10.37,2013-02-09 12:40:00,
2013-02-09 12:45:00,39.4,31.8,30.03,East,101,3.0,6.0,74,0.00,CLR,CLR,0.04,WeatherDisplay:10.37,2013-02-09 12:45:00,
2013-02-09 12:50:00,39.4,31.8,30.03,East,90,3.0,6.0,74,0.00,CLR,CLR,0.04,WeatherDisplay:10.37,2013-02-09 12:50:00,
2013-02-09 12:55:00,39.6,32.0,30.03,East,87,1.0,6.0,74,0.00,CLR,CLR,0.04,WeatherDisplay:10.37,2013-02-09 12:55:00,
2013-02-09 13:00:00,39.7,32.1,30.03,ESE,102,3.0,6.0,74,0.00,CLR,CLR,0.04,WeatherDisplay:10.37,2013-02-09 13:00:00,
2013-02-09 13:10:00,39.7,32.1,30.03,East,101,0.0,6.0,74,0.00,CLR,CLR,0.04,WeatherDisplay:10.37,2013-02-09 13:10:00,
2013-02-09 13:15:00,39.7,32.1,30.03,East,89,2.0,4.0,74,0.00,CLR,CLR,0.04,WeatherDisplay:10.37,2013-02-09 13:15:00,
2013-02-09 13:20:00,39.7,32.1,30.03,East,91,1.0,4.0,74,0.00,CLR,CLR,0.04,WeatherDisplay:10.37,2013-02-09 13:20:00,
2013-02-09 13:25:00,39.7,32.1,30.03,East,90,0.0,3.0,74,0.00,CLR,CLR,0.04,WeatherDisplay:10.37,2013-02-09 13:25:00,
2013-02-09 13:30:00,39.7,32.1,30.03,East,83,2.0,5.0,74,0.00,CLR,CLR,0.04,WeatherDisplay:10.37,2013-02-09 13:30:00,
2013-02-09 13:40:00,39.4,31.8,30.03,ENE,62,1.0,6.0,74,0.00,CLR,CLR,0.04,WeatherDisplay:10.37,2013-02-09 13:40:00,
2013-02-09 13:45:00,39.6,32.0,30.03,ENE,78,2.0,6.0,74,0.00,CLR,CLR,0.04,WeatherDisplay:10.37,2013-02-09 13:45:00,
2013-02-09 13:50:00,39.6,32.0,30.00,East,94,3.0,4.0,74,0.00,CLR,CLR,0.04,WeatherDisplay:10.37,2013-02-09 13:50:00,
2013-02-09 13:55:00,39.7,32.1,30.00,East,85,3.0,5.0,74,0.00,CLR,CLR,0.04,WeatherDisplay:10.37,2013-02-09 13:55:00,
2013-02-09 14:00:00,39.6,32.0,30.00,ENE,65,5.0,6.0,74,0.00,CLR,CLR,0.04,WeatherDisplay:10.37,2013-02-09 14:00:00,
2013-02-09 14:10:00,39.7,32.1,30.00,East,83,3.0,5.0,74,0.00,CLR,CLR,0.04,WeatherDisplay:10.37,2013-02-09 14:10:00,
2013-02-09 14:20:00,39.9,32.3,30.00,East,93,3.0,6.0,74,0.00,CLR,CLR,0.04,WeatherDisplay:10.37,2013-02-09 14:20:00,
2013-02-09 14:30:00,39.9,32.3,30.00,ENE,68,3.0,6.0,74,0.00,CLR,CLR,0.04,WeatherDisplay:10.37,2013-02-09 14:30:00,
2013-02-09 14:40:00,39.9,32.3,30.00,East,81,2.0,6.0,74,0.00,CLR,CLR,0.04,WeatherDisplay:10.37,2013-02-09 14:40:00,
2013-02-09 14:45:00,39.9,32.3,30.00,East,96,3.0,6.0,74,0.00,CLR,CLR,0.04,WeatherDisplay:10.37,2013-02-09 14:45:00,
2013-02-09 14:50:00,39.9,32.3,30.00,ESE,109,2.0,6.0,74,0.00,CLR,CLR,0.04,WeatherDisplay:10.37,2013-02-09 14:50:00,
2013-02-09 14:55:00,40.0,32.8,30.00,ESE,110,2.0,6.0,75,0.00,CLR,CLR,0.04,WeatherDisplay:10.37,2013-02-09 14:55:00,
2013-02-09 15:00:00,39.9,32.3,30.00,East,99,3.0,6.0,74,0.00,CLR,CLR,0.04,WeatherDisplay:10.37,2013-02-09 15:00:00,
2013-02-09 15:05:00,39.7,32.1,30.00,East,94,3.0,6.0,74,0.00,CLR,CLR,0.04,WeatherDisplay:10.37,2013-02-09 15:05:00,
2013-02-09 15:15:00,39.7,32.1,30.00,East,88,3.0,6.0,74,0.00,CLR,CLR,0.04,WeatherDisplay:10.37,2013-02-09 15:15:00,
2013-02-09 15:20:00,39.7,32.1,29.98,ESE,102,3.0,6.0,74,0.00,CLR,CLR,0.04,WeatherDisplay:10.37,2013-02-09 15:20:00,
2013-02-09 15:25:00,39.6,32.0,29.97,East,99,5.0,7.0,74,0.00,CLR,CLR,0.04,WeatherDisplay:10.37,2013-02-09 15:25:00,
2013-02-09 15:30:00,39.6,32.0,29.97,East,95,6.0,8.0,74,0.00,CLR,CLR,0.04,WeatherDisplay:10.37,2013-02-09 15:30:00,
2013-02-09 15:40:00,39.4,31.8,29.97,East,87,3.0,6.0,74,0.00,CLR,CLR,0.04,WeatherDisplay:10.37,2013-02-09 15:40:00,
2013-02-09 15:45:00,39.4,31.8,29.97,East,87,3.0,6.0,74,0.00,CLR,CLR,0.04,WeatherDisplay:10.37,2013-02-09 15:45:00,
2013-02-09 15:50:00,39.4,31.8,29.97,East,97,5.0,6.0,74,0.00,CLR,CLR,0.04,WeatherDisplay:10.37,2013-02-09 15:50:00,
2013-02-09 15:55:00,39.4,31.8,29.97,East,86,3.0,6.0,74,0.00,CLR,CLR,0.04,WeatherDisplay:10.37,2013-02-09 15:55:00,
2013-02-09 16:00:00,39.2,31.6,29.97,East,81,6.0,8.0,74,0.00,CLR,CLR,0.04,WeatherDisplay:10.37,2013-02-09 16:00:00,
2013-02-09 16:05:00,39.2,31.6,29.97,East,91,5.0,6.0,74,0.00,CLR,CLR,0.04,WeatherDisplay:10.37,2013-02-09 16:05:00,
2013-02-09 16:10:00,39.2,31.6,29.97,East,91,5.0,6.0,74,0.00,CLR,CLR,0.04,WeatherDisplay:10.37,2013-02-09 16:10:00,
2013-02-09 16:15:00,39.2,31.6,29.97,East,91,5.0,8.0,74,0.00,CLR,CLR,0.04,WeatherDisplay:10.37,2013-02-09 16:15:00,
2013-02-09 16:20:00,39.0,31.4,29.97,East,88,6.0,8.0,74,0.00,CLR,CLR,0.04,WeatherDisplay:10.37,2013-02-09 16:20:00,
2013-02-09 16:25:00,38.8,31.3,29.97,East,86,5.0,6.0,74,0.00,CLR,CLR,0.04,WeatherDisplay:10.37,2013-02-09 16:25:00,
2013-02-09 16:30:00,38.8,31.3,29.97,East,87,3.0,6.0,74,0.00,CLR,CLR,0.04,WeatherDisplay:10.37,2013-02-09 16:30:00,
2013-02-09 16:40:00,38.8,31.3,29.97,East,83,3.0,4.0,74,0.00,CLR,CLR,0.04,WeatherDisplay:10.37,2013-02-09 16:40:00,
2013-02-09 16:45:00,38.8,31.2,29.97,East,79,3.0,6.0,74,0.00,CLR,CLR,0.04,WeatherDisplay:10.37,2013-02-09 16:45:00,
2013-02-09 16:50:00,38.7,31.1,29.94,East,84,3.0,6.0,74,0.00,CLR,CLR,0.04,WeatherDisplay:10.37,2013-02-09 16:50:00,
2013-02-09 16:55:00,38.7,31.1,29.94,East,87,3.0,6.0,74,0.00,CLR,CLR,0.04,WeatherDisplay:10.37,2013-02-09 16:55:00,
2013-02-09 17:00:00,38.5,30.9,29.94,East,86,3.0,6.0,74,0.00,CLR,CLR,0.04,WeatherDisplay:10.37,2013-02-09 17:00:00,
2013-02-09 17:05:00,38.5,30.9,29.94,ENE,78,5.0,6.0,74,0.00,CLR,CLR,0.04,WeatherDisplay:10.37,2013-02-09 17:05:00,
2013-02-09 17:10:00,38.5,30.9,29.94,East,81,5.0,6.0,74,0.00,CLR,CLR,0.04,WeatherDisplay:10.37,2013-02-09 17:10:00,
2013-02-09 17:15:00,38.5,30.9,29.94,East,88,5.0,6.0,74,0.00,CLR,CLR,0.04,WeatherDisplay:10.37,2013-02-09 17:15:00,
2013-02-09 17:20:00,38.5,30.9,29.94,ENE,74,3.0,6.0,74,0.00,CLR,CLR,0.04,WeatherDisplay:10.37,2013-02-09 17:20:00,
2013-02-09 17:25:00,38.3,30.7,29.94,ENE,68,3.0,6.0,74,0.00,CLR,CLR,0.04,WeatherDisplay:10.37,2013-02-09 17:25:00,
2013-02-09 17:30:00,38.3,30.7,29.94,ENE,64,3.0,6.0,74,0.00,CLR,CLR,0.04,WeatherDisplay:10.37,2013-02-09 17:30:00,
2013-02-09 17:40:00,38.3,30.7,29.94,East,81,3.0,6.0,74,0.00,CLR,CLR,0.04,WeatherDisplay:10.37,2013-02-09 17:40:00,
2013-02-09 17:45:00,38.1,30.6,29.94,East,89,5.0,8.0,74,0.00,CLR,CLR,0.04,WeatherDisplay:10.37,2013-02-09 17:45:00,
2013-02-09 17:50:00,38.1,30.6,29.94,East,88,3.0,7.0,74,0.00,CLR,CLR,0.04,WeatherDisplay:10.37,2013-02-09 17:50:00,
2013-02-09 17:55:00,38.1,30.6,29.94,East,92,5.0,6.0,74,0.00,CLR,CLR,0.04,WeatherDisplay:10.37,2013-02-09 17:55:00,
2013-02-09 18:00:00,38.1,30.6,29.94,East,93,3.0,6.0,74,0.00,CLR,CLR,0.04,WeatherDisplay:10.37,2013-02-09 18:00:00,
2013-02-09 18:10:00,38.1,30.6,29.94,East,85,3.0,6.0,74,0.00,CLR,CLR,0.04,WeatherDisplay:10.37,2013-02-09 18:10:00,
2013-02-09 18:15:00,38.1,30.6,29.94,East,80,2.0,6.0,74,0.00,CLR,CLR,0.04,WeatherDisplay:10.37,2013-02-09 18:15:00,
2013-02-09 18:20:00,38.1,30.6,29.92,East,84,3.0,6.0,74,0.00,CLR,CLR,0.04,WeatherDisplay:10.37,2013-02-09 18:20:00,
2013-02-09 18:25:00,38.1,30.6,29.91,ENE,71,3.0,5.0,74,0.00,CLR,CLR,0.04,WeatherDisplay:10.37,2013-02-09 18:25:00,
2013-02-09 18:30:00,38.1,30.6,29.91,ENE,78,3.0,6.0,74,0.00,CLR,CLR,0.04,WeatherDisplay:10.37,2013-02-09 18:30:00,
2013-02-09 18:35:00,38.0,30.4,29.91,ENE,78,5.0,6.0,74,0.00,CLR,CLR,0.04,WeatherDisplay:10.37,2013-02-09 18:35:00,
2013-02-09 18:40:00,37.9,30.4,29.91,East,83,5.0,6.0,74,0.00,CLR,CLR,0.04,WeatherDisplay:10.37,2013-02-09 18:40:00,
2013-02-09 18:45:00,37.9,30.4,29.91,East,95,3.0,6.0,74,0.00,CLR,CLR,0.04,WeatherDisplay:10.37,2013-02-09 18:45:00,
2013-02-09 18:50:00,37.9,30.4,29.91,East,90,5.0,6.0,74,0.00,CLR,CLR,0.04,WeatherDisplay:10.37,2013-02-09 18:50:00,
2013-02-09 18:55:00,37.9,30.4,29.91,East,94,3.0,6.0,74,0.00,CLR,CLR,0.04,WeatherDisplay:10.37,2013-02-09 18:55:00,
2013-02-09 19:00:00,37.9,30.4,29.91,East,87,3.0,6.0,74,0.00,CLR,CLR,0.04,WeatherDisplay:10.37,2013-02-09 19:00:00,
2013-02-09 19:05:00,37.9,30.4,29.91,East,85,5.0,6.0,74,0.00,CLR,CLR,0.04,WeatherDisplay:10.37,2013-02-09 19:05:00,
2013-02-09 19:10:00,37.9,30.4,29.91,East,98,5.0,6.0,74,0.00,CLR,CLR,0.04,WeatherDisplay:10.37,2013-02-09 19:10:00,
2013-02-09 19:15:00,37.9,30.4,29.91,East,100,5.0,6.0,74,0.00,CLR,CLR,0.04,WeatherDisplay:10.37,2013-02-09 19:15:00,
2013-02-09 19:20:00,37.8,30.2,29.91,East,94,3.0,6.0,74,0.00,CLR,CLR,0.04,WeatherDisplay:10.37,2013-02-09 19:20:00,
2013-02-09 19:25:00,37.8,30.2,29.91,East,94,3.0,6.0,74,0.00,CLR,CLR,0.04,WeatherDisplay:10.37,2013-02-09 19:25:00,
2013-02-09 19:30:00,37.8,30.2,29.91,ESE,104,3.0,6.0,74,0.00,CLR,CLR,0.04,WeatherDisplay:10.37,2013-02-09 19:30:00,
2013-02-09 19:35:00,37.6,30.1,29.91,East,101,2.0,4.0,74,0.00,CLR,CLR,0.04,WeatherDisplay:10.37,2013-02-09 19:35:00,
2013-02-09 19:40:00,37.6,30.0,29.91,ESE,103,3.0,6.0,74,0.00,CLR,CLR,0.04,WeatherDisplay:10.37,2013-02-09 19:40:00,
2013-02-09 19:45:00,37.6,30.0,29.91,ESE,107,1.0,4.0,74,0.00,CLR,CLR,0.04,WeatherDisplay:10.37,2013-02-09 19:45:00,
2013-02-09 19:50:00,37.6,30.0,29.88,East,101,0.0,4.0,74,0.00,CLR,CLR,0.04,WeatherDisplay:10.37,2013-02-09 19:50:00,
2013-02-09 19:55:00,37.6,30.0,29.88,East,96,5.0,5.0,74,0.00,CLR,CLR,0.04,WeatherDisplay:10.37,2013-02-09 19:55:00,
2013-02-09 20:00:00,37.6,30.0,29.88,East,99,3.0,4.0,74,0.00,CLR,CLR,0.04,WeatherDisplay:10.37,2013-02-09 20:00:00,
2013-02-09 20:05:00,37.4,29.9,29.88,ESE,102,3.0,4.0,74,0.00,CLR,CLR,0.04,WeatherDisplay:10.37,2013-02-09 20:05:00,
2013-02-09 20:10:00,37.4,29.9,29.88,ESE,105,3.0,3.0,74,0.00,CLR,CLR,0.04,WeatherDisplay:10.37,2013-02-09 20:10:00,
2013-02-09 20:20:00,37.4,29.9,29.88,East,95,0.0,3.0,74,0.00,CLR,CLR,0.04,WeatherDisplay:10.37,2013-02-09 20:20:00,
2013-02-09 20:25:00,37.2,29.7,29.88,ENE,65,0.0,0.0,74,0.00,CLR,CLR,0.04,WeatherDisplay:10.37,2013-02-09 20:25:00,
2013-02-09 20:30:00,37.2,29.7,29.88,NE,47,0.0,0.0,74,0.00,CLR,CLR,0.04,WeatherDisplay:10.37,2013-02-09 20:30:00,
2013-02-09 20:35:00,37.2,30.0,29.88,NE,52,2.0,4.0,75,0.00,CLR,CLR,0.04,WeatherDisplay:10.37,2013-02-09 20:35:00,
2013-02-09 20:45:00,37.2,30.0,29.88,East,82,0.0,2.0,75,0.00,CLR,CLR,0.04,WeatherDisplay:10.37,2013-02-09 20:45:00,
2013-02-09 20:50:00,37.2,30.0,29.88,ENE,71,3.0,3.0,75,0.00,CLR,CLR,0.04,WeatherDisplay:10.37,2013-02-09 20:50:00,
2013-02-09 20:55:00,37.2,30.0,29.88,ENE,63,5.0,5.0,75,0.00,CLR,CLR,0.04,WeatherDisplay:10.37,2013-02-09 20:55:00,
2013-02-09 21:00:00,37.2,30.0,29.88,ENE,77,2.0,6.0,75,0.00,CLR,CLR,0.04,WeatherDisplay:10.37,2013-02-09 21:00:00,
2013-02-09 21:05:00,37.2,30.0,29.88,East,81,3.0,6.0,75,0.00,CLR,CLR,0.04,WeatherDisplay:10.37,2013-02-09 21:05:00,
2013-02-09 21:10:00,37.2,30.0,29.88,ENE,74,0.0,6.0,75,0.00,CLR,CLR,0.04,WeatherDisplay:10.37,2013-02-09 21:10:00,
2013-02-09 21:15:00,37.2,30.0,29.88,East,83,3.0,5.0,75,0.00,CLR,CLR,0.04,WeatherDisplay:10.37,2013-02-09 21:15:00,
2013-02-09 21:20:00,37.2,30.0,29.85,East,91,3.0,5.0,75,0.00,CLR,CLR,0.04,WeatherDisplay:10.37,2013-02-09 21:20:00,
2013-02-09 21:25:00,37.2,30.0,29.85,East,86,1.0,6.0,75,0.00,CLR,CLR,0.04,WeatherDisplay:10.37,2013-02-09 21:25:00,
2013-02-09 21:30:00,37.0,29.8,29.85,East,84,2.0,6.0,75,0.00,CLR,CLR,0.04,WeatherDisplay:10.37,2013-02-09 21:30:00,
2013-02-09 21:35:00,37.0,29.8,29.85,East,87,5.0,6.0,75,0.00,CLR,CLR,0.04,WeatherDisplay:10.37,2013-02-09 21:35:00,
2013-02-09 21:45:00,37.0,29.8,29.85,ENE,77,3.0,6.0,75,0.00,CLR,CLR,0.04,WeatherDisplay:10.37,2013-02-09 21:45:00,
2013-02-09 21:50:00,37.0,29.8,29.85,ENE,77,3.0,6.0,75,0.00,CLR,CLR,0.04,WeatherDisplay:10.37,2013-02-09 21:50:00,
2013-02-09 22:00:00,36.9,29.7,29.85,ENE,68,2.0,6.0,75,0.00,CLR,CLR,0.04,WeatherDisplay:10.37,2013-02-09 22:00:00,
2013-02-09 22:05:00,36.9,29.7,29.85,East,82,3.0,5.0,75,0.00,CLR,CLR,0.04,WeatherDisplay:10.37,2013-02-09 22:05:00,
2013-02-09 22:10:00,36.8,29.3,29.85,East,82,1.0,8.0,74,0.00,CLR,CLR,0.04,WeatherDisplay:10.37,2013-02-09 22:10:00,
2013-02-09 22:20:00,36.7,29.2,29.83,East,93,5.0,7.0,74,0.00,CLR,CLR,0.04,WeatherDisplay:10.37,2013-02-09 22:20:00,
2013-02-09 22:25:00,36.7,29.2,29.83,East,90,5.0,6.0,74,0.00,CLR,CLR,0.04,WeatherDisplay:10.37,2013-02-09 22:25:00,
2013-02-09 22:30:00,36.5,29.0,29.83,East,88,3.0,6.0,74,0.00,CLR,CLR,0.04,WeatherDisplay:10.37,2013-02-09 22:30:00,
2013-02-09 22:35:00,36.5,29.0,29.83,East,95,5.0,6.0,74,0.00,CLR,CLR,0.04,WeatherDisplay:10.37,2013-02-09 22:35:00,
2013-02-09 22:40:00,36.5,29.0,29.83,East,97,6.0,8.0,74,0.00,CLR,CLR,0.04,WeatherDisplay:10.37,2013-02-09 22:40:00,
2013-02-09 22:45:00,36.3,28.8,29.83,East,95,5.0,8.0,74,0.00,CLR,CLR,0.04,WeatherDisplay:10.37,2013-02-09 22:45:00,
2013-02-09 22:50:00,36.3,28.8,29.83,East,90,6.0,8.0,74,0.00,CLR,CLR,0.04,WeatherDisplay:10.37,2013-02-09 22:50:00,
2013-02-09 22:55:00,36.3,28.8,29.83,East,90,5.0,8.0,74,0.00,CLR,CLR,0.04,WeatherDisplay:10.37,2013-02-09 22:55:00,
2013-02-09 23:00:00,36.3,28.8,29.83,East,95,6.0,8.0,74,0.00,CLR,CLR,0.04,WeatherDisplay:10.37,2013-02-09 23:00:00,
2013-02-09 23:05:00,36.3,28.8,29.83,East,96,5.0,8.0,74,0.00,CLR,CLR,0.04,WeatherDisplay:10.37,2013-02-09 23:05:00,
2013-02-09 23:10:00,36.3,28.8,29.83,East,92,6.0,8.0,74,0.00,CLR,CLR,0.04,WeatherDisplay:10.37,2013-02-09 23:10:00,
2013-02-09 23:15:00,36.3,28.8,29.83,East,95,6.0,8.0,74,0.00,CLR,CLR,0.04,WeatherDisplay:10.37,2013-02-09 23:15:00,
2013-02-09 23:20:00,36.1,28.6,29.80,East,93,7.0,8.0,74,0.00,CLR,CLR,0.04,WeatherDisplay:10.37,2013-02-09 23:20:00,
2013-02-09 23:30:00,36.1,28.3,29.80,East,95,6.0,8.0,73,0.00,CLR,CLR,0.04,WeatherDisplay:10.37,2013-02-09 23:30:00,
2013-02-09 23:35:00,36.0,28.1,29.80,East,93,6.0,8.0,73,0.00,CLR,CLR,0.04,WeatherDisplay:10.37,2013-02-09 23:35:00,
2013-02-09 23:40:00,36.0,28.1,29.80,East,95,5.0,6.0,73,0.00,CLR,CLR,0.04,WeatherDisplay:10.37,2013-02-09 23:40:00,
2013-02-09 23:45:00,36.0,28.1,29.80,East,97,3.0,6.0,73,0.00,CLR,CLR,0.04,WeatherDisplay:10.37,2013-02-09 23:45:00,
2013-02-09 23:50:00,36.0,28.1,29.80,East,93,5.0,8.0,73,0.00,CLR,CLR,0.04,WeatherDisplay:10.37,2013-02-09 23:50:00,
2013-02-09 23:55:00,36.0,28.1,29.80,East,84,3.0,8.0,73,0.00,CLR,CLR,0.04,WeatherDisplay:10.37,2013-02-09 23:55:00,